Location: Shepherdstown, WV
(39.4326°N, 77.8042°W)
Time: 15:38:35
(UTC-04:00)

Transit 2A - Pass Details

Date: 05 August 2021
Orbit: 594 x 964 km, 66.7° (Epoch: 20 September)

Event Time Altitude Azimuth Distance (km) Brightness Sun altitude
Rises 05:37:42 0° 189° (S) 2,817 8.6 -7.3°
Reaches altitude 10° 05:39:59 10° 182° (S) 1,929 7.8 -6.9°
Maximum altitude 05:44:01 41° 112° (ESE) 902 6.8 -6.2°
Drops below altitude 10° 05:48:18 10° 43° (NE) 2,045 9.6 -5.5°
Sets 05:50:46 0° 36° (NE) 3,010 10.4 -5.1°
